{"data":{"norad_id":57605,"epoch":"2026-09-20T17:30:06.232320Z","epoch_age_seconds":108142,"freshness":"FRESH","line1":"1 57605U 23119D   26263.72923880  .00000741  00000+0  36457-4 0  9997","line2":"2 57605  43.0012  60.2320 0001348 265.4026  94.6672 15.27576522172915","mean_motion":15.27576522,"eccentricity":0.0001348,"inclination_deg":43.0012,"raan_deg":60.232,"arg_perigee_deg":265.4026,"mean_anomaly_deg":94.6672,"bstar":3.6457e-5,"rev_number":17291,"period_min":94.266963341035,"perigee_km":482.13462115301,"apogee_km":483.98439973223,"semimajor_km":6861.1965104426,"source":"CELESTRAK","updated_at":"2026-09-21T09:00:33.640340Z"}}